TIME,�g��[���C[MJ/h],����[MJ/h],�Ɩ�[MJ/h],�~�[[MJ/h],�①��[MJ/h],��y���[MJ/h],�Ǝ��q��[MJ/h],���̑��s��[MJ/h],�u�����`������[MJ/h]
2004/8/1 0:00,0,0,0.23904,0.02592,0.29376,0.17424,0.0288,0,0.00864
2004/8/1 0:15,0.036,0,0.46368,0.0216,0,0.19728,0,0,0.00864
2004/8/1 0:30,0,0,0.26064,0.02304,0.4896,0.30096,0.03312,0,-0.03456
2004/8/1 0:45,0,0,0.2592,0.0216,0.50832,0.3024,0,0,-0.0216
2004/8/1 1:00,0,0,0.252,0.02304,0.49392,0.29376,0.03312,0,-0.01872
2004/8/1 1:15,0,0,0.2016,0.02304,0.17424,0.30096,0,0,0.02016
2004/8/1 1:30,0,0,0.2088,0.0216,0.036,0.27072,0.036,0,0.02736
2004/8/1 1:45,0,0,0.18288,0.03024,0.49392,0.17424,0,0,0.00576
2004/8/1 2:00,0,0,0.17424,0.02736,0.48528,0.13824,0.03024,0,0.02448
2004/8/1 2:15,0,0,0.1728,0.02592,0.08064,0.1368,0,0,0.06048
2004/8/1 2:30,0,0,0.1728,0.0216,0.1368,0.13248,0.03168,0,0.05904
2004/8/1 2:45,0,0,0.17856,0.02592,0.4968,0.1368,0,0,0.01728
2004/8/1 3:00,0,0,0.18144,0.02592,0.4104,0.13248,0.036,0,0.02448
2004/8/1 3:15,0,0,0.17856,0.0216,0,0.1296,0,0,0.0648
2004/8/1 3:30,0,0,0.17856,0.0216,0.3096,0.1368,0.03168,0,0.03168
2004/8/1 3:45,0,0,0.18144,0.02448,0.49104,0.1368,0,0,0.01872
2004/8/1 4:00,0,0,0.18144,0.02592,0.22752,0.13392,0.036,0,0.04032
2004/8/1 4:15,0,0,0.18432,0.0216,0.00432,0.13392,0,0,0.06192
2004/8/1 4:30,0,0,0.20736,0.02448,0.49392,0.13392,0,0,0.0144
2004/8/1 4:45,0,0,0.18864,0.02304,0.48672,0.1368,0.03456,0,0.0144
2004/8/1 5:00,0,0,0.18288,0.0216,0.02448,0.13536,0,0,0.06336
2004/8/1 5:15,0,0,0.18288,0.02304,0.21024,0.1296,0.03312,0,0.03744
2004/8/1 5:30,0,0,0.18576,0.02304,0.49536,0.1368,0,0,0.01584
2004/8/1 5:45,0,0,0.18432,0.02592,0.29232,0.13392,0.03744,0,0.03312
2004/8/1 6:00,0,0,0.18576,0.0216,0,0.13392,0,0,0.0648
2004/8/1 6:15,0,0,0.17856,0.02448,0.41904,0.13248,0.03312,0,0.01008
2004/8/1 6:30,0,0,0.18,0.02448,0.48672,0.12816,0,0,0.01296
2004/8/1 6:45,0,0,0.17424,0.02304,0.09072,0.1368,0,0,0.05904
2004/8/1 7:00,0,0,0.2376,0.02448,0.12672,0.144,0.03456,0,0.04896
2004/8/1 7:15,0,0,0.38592,0.02304,0.49536,0.13824,0,0,-0.01008
2004/8/1 7:30,0,0,0.4752,0.02592,0.4896,0.19008,0.03456,0,-0.02592
2004/8/1 7:45,0,0,0.42192,2.00736,0.2952,0.13824,0,0,0.02016
2004/8/1 8:00,0,0,0.26928,0.0216,0,0.14688,0.03456,0,0.05328
2004/8/1 8:15,0,0,0.4104,0.02448,0.42192,0.13392,0,0,-0.0072
2004/8/1 8:30,0,0,0.73728,0.51408,0.51984,0.17136,0.53856,0,-0.12816
2004/8/1 8:45,0,0,0.8496,0.02304,0.51264,0.25776,2.22336,0,-0.36
2004/8/1 9:00,0,0,0.63648,0.02448,0.288,0.432,0,0,-0.05184
2004/8/1 9:15,1.54656,0,0.34848,0.0216,0,0.47808,0.03312,0,-0.02304
2004/8/1 9:30,0.31104,0,0.27648,0.0288,0.4392,0.43632,0.55296,0,-0.072
2004/8/1 9:45,0,0,0.22896,0.02736,0.504,0.432,0.03024,0,-0.04752
2004/8/1 10:00,0,0,0.22464,0.02448,0.0648,0.48816,0,0,-0.00864
2004/8/1 10:15,0,0,0.26496,0.02304,0.17856,0.48672,0.036,0,-0.02304
2004/8/1 10:30,0,0,0.20448,0.02304,0.51696,0.47952,0,0,-0.0504
2004/8/1 10:45,0,0,0.25488,0.02592,0.40896,0.468,0.03312,0,-0.05472
2004/8/1 11:00,0,0,0.288,0.0216,0,0.46512,0,0,-0.00288
2004/8/1 11:15,0,0,0.25056,0.02304,0.36864,0.48096,0.03744,0,-0.06912
2004/8/1 11:30,0,0,0.44352,0.02448,0.52272,0.30384,0,0,-0.02592
2004/8/1 11:45,0,0,0.6048,0.02736,0.5112,0.27648,0,0,-0.0144
2004/8/1 12:00,0.0216,0,0.68544,0.02736,0.43488,0.2664,0.036,0,-0.03888
2004/8/1 12:15,0,0,0.75888,0.0216,0,0.27216,0,0,-0.00288
2004/8/1 12:30,0,0,0.63504,0.0216,0.34128,0.24624,0.03744,0,-0.01296
2004/8/1 12:45,0,0,0.17712,0.02304,0.51552,0.22176,0,0,0
2004/8/1 13:00,0,0,0.17712,0.02592,0.27504,0.22752,0,0,0.02448
2004/8/1 13:15,0,0,0.16992,0.0216,0.0072,0.22032,0.0288,0,0.04464
2004/8/1 13:30,0,0,0.17424,0.02304,0.51408,0.22176,0,0,0
2004/8/1 13:45,0,0,0.28368,0.02304,0.51984,0.24912,0.03312,0,-0.02592
2004/8/1 14:00,0,0,1.18512,0.03168,0.51552,0.288,0,0,-0.14976
2004/8/1 14:15,0,0,1.40256,0.0216,0.00432,0.28224,0.03456,0,-0.11952
2004/8/1 14:30,0,0,0.95184,0.0216,0.27504,0.31536,0,0,-0.08352
2004/8/1 14:45,0.68688,0,0.37584,0.02304,0.51696,0.34272,0.03168,0,-0.0648
2004/8/1 15:00,3.35232,0,0.324,0.02448,0.51984,0.35424,0,0,-0.02304
2004/8/1 15:15,2.8656,0,0.32544,0.03024,0.55296,0.3528,0.036,0,-0.05472
2004/8/1 15:30,1.72224,0,0.324,0.03456,0.54864,0.39168,0,0,-0.06912
2004/8/1 15:45,1.692,0,0.324,0.0288,0.4896,0.33984,0,0,-0.02592
2004/8/1 16:00,1.58832,0,0.40896,0.0288,0.57168,0.29808,0.03456,0,-0.02736
2004/8/1 16:15,1.56096,0,0.75024,0.03168,0.55152,0.22464,0,0,-0.03024
2004/8/1 16:30,1.6272,0,0.96912,0.0288,0.54,0.32976,0.03312,0,-0.0576
2004/8/1 16:45,0.39888,0,1.00656,0.02304,0.53856,0.74592,0,0,-0.108
2004/8/1 17:00,0.036,0,1.44144,0.02304,0.53856,0.75456,0.02448,0,-0.19008
2004/8/1 17:15,0,0,1.19376,0.04176,0.51984,0.47808,0.01152,0,-0.1008
2004/8/1 17:30,0,0,1.0512,0.02736,0.51408,0.288,0.03168,0,-0.03888
2004/8/1 17:45,0,0,0.94464,0.036,0.52128,0.30672,0,0,-0.05184
2004/8/1 18:00,0,0,0.83232,0.02304,0.51696,0.31392,0.03024,0,-0.05904
2004/8/1 18:15,0,0,1.0008,0.87264,0.50832,0.36144,0,0,0.036
2004/8/1 18:30,0,0,1.22256,1.34352,0.50832,0.43632,0.03312,0,-0.04896
2004/8/1 18:45,0.27216,0,1.98144,0.64224,0.51552,0.24336,0,0,-0.21312
2004/8/1 19:00,0.1728,0,2.07648,0.08784,0.5184,0.24624,0.03312,0,-0.23616
2004/8/1 19:15,0.03456,0,1.75968,0.07488,0.06336,0.40608,0.00144,0,-0.17136
2004/8/1 19:30,0.12672,0,1.50912,0.08064,0.15696,0.4392,0.03168,0,-0.19872
2004/8/1 19:45,0.2376,0,1.89504,0.07632,0.51696,0.432,0,0,-0.29952
2004/8/1 20:00,0.108,0,1.24848,0.0864,0.50112,0.4104,0.03168,0,-0.19008
2004/8/1 20:15,0,0,0.432,0.06336,0.20304,0.39456,0,0,-0.03744
2004/8/1 20:30,0,0,0.43344,0.05904,0.02304,0.39168,0.0288,0,-0.01728
2004/8/1 20:45,0,0,0.57744,0.06768,0.49248,0.53856,0.14688,0,-0.1152
2004/8/1 21:00,0,0,1.24272,0.07056,0.4968,0.6408,0,0,-0.20592
2004/8/1 21:15,0,0,1.20384,0.06768,0.216,0.6768,0.03456,0,-0.17136
2004/8/1 21:30,0,0,1.2384,0.06624,0.19152,0.71568,0,0,-0.17712
2004/8/1 21:45,0,0,1.58976,0.07488,0.4968,0.87264,0.03456,0,-0.30384
2004/8/1 22:00,0,0,1.5336,0.07056,0.4464,0.8856,0,0,-0.30816
2004/8/1 22:15,0.0432,0,1.70496,0.07344,0,0.67104,0,0,-0.20304
2004/8/1 22:30,0.108,0,2.01312,0.07632,0.26928,0.50112,0.28368,0,-0.32688
2004/8/1 22:45,0,0,1.91808,0.07344,0.4968,0.3888,0.78336,0,-0.37296
2004/8/1 23:00,0,0,2.09376,0.07776,0.35856,0.3888,0.57456,0,-0.38304
2004/8/1 23:15,0,0,1.95984,0.07344,0,0.3888,0.54,0,-0.27792
2004/8/1 23:30,0.00864,0,0.648,0.08496,0.44064,0.36288,0.17568,0,-0.10944
2004/8/1 23:45,0.1872,0,1.01952,0.0792,0.4968,0.3456,0,0,-0.1368
2004/8/2 0:00,0.1512,0,0.96192,0.07776,0.2304,0.3456,1.36224,0,-0.22752
2004/8/2 0:15,0.02016,0,0.43344,0.07344,0,0.29088,0,0,0.01008
2004/8/2 0:30,0,0,0.28512,0.36432,0.4896,0.23184,0.03456,0,-0.01296
2004/8/2 0:45,0,0,0.27072,0.19872,0.4968,0.23616,0,0,-0.0288
2004/8/2 1:00,0,0,0.26208,0.11664,0.07344,0.23328,0.03312,0,0.01296
2004/8/2 1:15,0,0,0.24336,0.0792,0.14544,0.23328,0,0,0.03024
2004/8/2 1:30,0,0,0.2448,0.07488,0.4968,0.2376,0.03312,0,-0.0072
2004/8/2 1:45,0,0,0.24336,0.07632,0.4608,0.23472,0,0,0.00432
2004/8/2 2:00,0,0,0.24336,0.06624,0,0.23472,0.03024,0,0.036
2004/8/2 2:15,0,0,0.25344,0.06768,0.25632,0.23616,0,0,0.02448
2004/8/2 2:30,0,0,0.252,0.0648,0.4968,0.23328,0.0288,0,-0.00864
2004/8/2 2:45,0,0,0.24912,0.0648,0.33696,0.23184,0,0,0.01008
2004/8/2 3:00,0,0,0.25488,0.0648,0,0.23328,0.03312,0,0.036
2004/8/2 3:15,0,0,0.1944,0.06912,0.39024,0.23328,0,0,0
2004/8/2 3:30,0,0,0.1944,0.06192,0.49536,0.23472,0.0288,0,-0.03024
2004/8/2 3:45,0,0,0.20448,0.07488,0.1728,0.23328,0,0,0.00576
2004/8/2 4:00,0,0,0.20592,0.0792,0.04608,0.23328,0.03312,0,0.00288
2004/8/2 4:15,0,0,0.18,0.08064,0.4896,0.23184,0,0,0
2004/8/2 4:30,0,0,0.21312,0.08064,0.49104,0.23328,0.03024,0,-0.03024
2004/8/2 4:45,0,0,0.18864,0.07344,0.0072,0.23472,0,0,0.06768
2004/8/2 5:00,0,0,0.20016,0.08064,0.20736,0.23616,0.03456,0,0.0072
2004/8/2 5:15,0,0,0.19872,0.07776,0.4968,0.23472,0,0,-0.01296
2004/8/2 5:30,0,0,0.2088,0.35856,0.29664,0.23472,0.03456,0,-0.01008
2004/8/2 5:45,0,0,0.20016,0.2016,0,0.23184,0,0,0.00432
2004/8/2 6:00,0,0,0.18576,0.10944,0.40032,0.23616,0.03168,0,0.00576
2004/8/2 6:15,0,0,0.1728,0.08208,0.4896,0.23184,0,0,0.00432
2004/8/2 6:30,0,0,0.26784,0.0792,0.10512,0.23328,0.036,0,0.03168
2004/8/2 6:45,0,0,0.33696,1.06272,0.12672,0.23616,0,0,-0.05184
2004/8/2 7:00,0,0,0.4464,0.072,0.50544,0.24192,0.03168,0,-0.036
2004/8/2 7:15,0,0,0.66096,1.22976,0.49536,0.23328,0,0,-0.07776
2004/8/2 7:30,0.0216,0,0.33408,0.0216,0,0.22896,0.03024,0,0.0288
2004/8/2 7:45,0.0936,0,0.8064,0.02304,0.26784,0.22464,0,0,-0.05472
2004/8/2 8:00,0,0,0.28512,0.02736,0.4968,0.22608,0.03456,0,-0.01296
2004/8/2 8:15,0,0,0.43632,0.02448,0.1944,0.2376,0,0,0.00144
2004/8/2 8:30,0,0,0.23472,0.0216,0.03024,0.2376,0.2736,0,0.01152
2004/8/2 8:45,0,0,0.52272,0.02736,0.50832,0.2376,0,0,-0.01872
2004/8/2 9:00,0,0,0.80352,0.03024,0.50112,0.23328,0.03888,0,-0.04032
2004/8/2 9:15,0.036,0,1.0728,0.02304,0.05184,0.2232,0.03456,0,-0.04032
2004/8/2 9:30,0.0072,0,0.75024,0.02304,0.16848,0.22896,0,0,-0.00576
2004/8/2 9:45,0,0,0.6696,0.5256,0.5184,0.23472,0.03168,0,-0.09648
2004/8/2 10:00,0,0,0.39744,0.03024,0.50832,0.22176,0,0,-0.02448
2004/8/2 10:15,0,0,0.2952,0.02448,0.55872,0.32112,0.0288,0,-0.05184
2004/8/2 10:30,0,0,0.30528,0.03456,0.5472,0.37584,0,0,-0.06768
2004/8/2 10:45,0.09504,0,0.3024,0.03312,0.45648,0.43488,0.03168,0,-0.05904
2004/8/2 11:00,1.2816,0,0.3096,0.0288,0.57744,0.36,0,0,-0.04752
2004/8/2 11:15,1.01952,0,0.30528,0.02592,0.55728,0.43776,0.03456,0,-0.04896
2004/8/2 11:30,0.86976,0,0.32832,0.02448,0.54,0.2736,0,0,-0.0288
2004/8/2 11:45,0.76032,0,0.2376,0.02448,0.52992,0.31248,0.036,0,-0.03024
2004/8/2 12:00,0.79632,0,0.17136,0.036,0.5184,0.46224,0,0,-0.0288
2004/8/2 12:15,0.90144,0,0.17568,0.02304,0.5112,0.468,0.03168,0,-0.0432
2004/8/2 12:30,0.8064,0,0.2592,0.0216,0.06048,0.3096,0,0,0.0216
2004/8/2 12:45,0.77472,0,0.40176,0.02304,0.20592,0.24192,0.03168,0,0.03024
2004/8/2 13:00,0.67824,0,0.21312,0.02448,0.5184,0.23328,0,0,0.00864
2004/8/2 13:15,0.72864,0,0.252,0.02304,0.50976,0.24912,0,0,0
2004/8/2 13:30,0.66816,0,0.35136,0.45792,0.51984,0.23328,0.03024,0,-0.0576
2004/8/2 13:45,0.78624,0,0.40752,0.02592,0.5256,0.22176,0,0,-0.0288
2004/8/2 14:00,2.05488,0,0.32832,0.03024,0.5184,0.3024,0.03312,0,-0.01728
2004/8/2 14:15,3.28752,0,0.35424,0.02448,0.32112,0.45504,0.00144,0,0.00144
2004/8/2 14:30,2.47824,0,0.1656,0.0216,0,0.4968,0.03024,0,0.05184
2004/8/2 14:45,1.85616,0,0.27216,0.02592,0.44928,0.3456,0.0864,0,-0.0144
2004/8/2 15:00,1.86912,0,0.17712,0.02592,0.5112,0.3456,0,0,0.01728
2004/8/2 15:15,1.872,0,0.1728,0.02592,0.4896,0.3456,0,0,0.01872
2004/8/2 15:30,1.89072,0,0.18288,0.0216,0.34992,0.3456,0.036,0,0.01296
2004/8/2 15:45,1.89792,0,0.1728,0.0216,0,0.3456,0,0,0.0648
2004/8/2 16:00,1.90944,0,0.1728,0.02448,0.3528,0.3456,0.03456,0,0.02736
2004/8/2 16:15,1.90944,0,0.1728,0.0288,0.4968,0.3456,0,0,0.01728
2004/8/2 16:30,1.88352,0,0.1728,0.02304,0.29808,0.34416,0,0,0.03888
2004/8/2 16:45,1.86048,0,0.16704,0.0216,0,0.32832,0.0288,0,0.06192
2004/8/2 17:00,1.83312,0,0.17856,0.03024,0.468,0.324,0,0,0.0072
2004/8/2 17:15,1.83888,0,0.16848,0.02592,0.5184,0.4392,0.03312,0,-0.00288
2004/8/2 17:30,1.82592,0,0.1944,0.02592,0.49824,0.5256,0,0,-0.01008
2004/8/2 17:45,1.79856,0,0.32112,0.55008,0.49536,0.39888,0.03744,0,-0.03456
2004/8/2 18:00,1.78128,0,0.3312,1.47312,0.03168,0.40896,0.03168,0,-0.00576
2004/8/2 18:15,1.75392,0,0.29376,1.07424,0.19296,0.4104,0,0,0.00576
2004/8/2 18:30,1.76976,0,0.44784,0.14976,0.51552,0.4104,0.036,0,-0.03312
2004/8/2 18:45,1.71792,0,0.50832,0.08352,0.49104,0.38016,0,0,-0.036
2004/8/2 19:00,1.71936,0,0.59328,0.54864,0.29232,0.4824,0,0,-0.11376
2004/8/2 19:15,0.70272,0,1.3968,0.0216,0,0.40896,0.036,0,-0.0864
2004/8/2 19:30,0.0216,0,1.94832,0.03024,0.49968,0.24624,0,0,-0.21744
2004/8/2 19:45,0,0,1.76976,0.02304,0.5184,0.3456,0.03456,0,-0.19584
2004/8/2 20:00,0,0,1.7496,0.0288,0.49968,0.3456,0,0,-0.17856
2004/8/2 20:15,0,0,1.75392,0.02448,0.50976,0.37296,0,0,-0.18432
2004/8/2 20:30,0,0,1.78704,0.0216,0.04896,0.56016,0.03312,0,-0.1656
2004/8/2 20:45,0,0,1.77984,0.02592,0.20304,0.5616,0,0,-0.18144
2004/8/2 21:00,0,0,1.86624,0.0216,0.5184,0.468,0.03312,0,-0.2016
2004/8/2 21:15,0,0,2.2032,0.02448,0.504,0.2304,0,0,-0.1944
2004/8/2 21:30,0,0,2.14272,0.02304,0.50256,0.23328,0,0,-0.18576
2004/8/2 21:45,0.0144,0,1.67904,0.0216,0,0.3168,0.03456,0,-0.12672
2004/8/2 22:00,0.072,0,2.36304,0.02448,0.24768,0.39456,0.28512,0,-0.28944
2004/8/2 22:15,0.072,0,1.98432,0.02448,0.51552,0.48816,0.04176,0,-0.30528
2004/8/2 22:30,0,0,1.70784,0.0288,0.3672,0.39312,1.01376,0,-0.34992
2004/8/2 22:45,0.13392,0,2.15424,0.0216,0,0.34848,0.03456,0,-0.22752
2004/8/2 23:00,0.06912,0,2.04912,0.02736,0.39744,0.34416,0.30096,0,-0.32832
2004/8/2 23:15,0.0216,0,0.96624,0.03456,0.49968,0.34704,0,0,-0.12096
2004/8/2 23:30,0,0,0.40464,0.02448,0.18864,0.3528,0.036,0,-0.00288
2004/8/2 23:45,0,0,0.37008,0.02448,0.07488,0.25488,0,0,0.01584
2004/8/3 0:00,0,0,0.34848,0.03456,0.4968,0.24048,0.03456,0,-0.02592
2004/8/3 0:15,0,0,0.252,0.03024,0.49248,0.22176,0,0,-0.0072
2004/8/3 0:30,0,0,0.23904,0.0216,0.00144,0.21888,0.03312,0,0.03888
2004/8/3 0:45,0,0,0.2376,0.02448,0.26928,0.21888,0,0,0.02016
2004/8/3 1:00,0,0,0.24192,0.036,0.504,0.22176,0.036,0,-0.01008
2004/8/3 1:15,0,0,0.24048,0.02592,0.27648,0.21888,0,0,0.01872
2004/8/3 1:30,0,0,0.24048,0.0216,0,0.22176,0,0,0.0432
2004/8/3 1:45,0,0,0.23472,0.03744,0.48672,0.22032,0.03024,0,-0.00432
2004/8/3 2:00,0,0,0.24912,0.0288,0.49536,0.22032,0.03024,0,-0.00576
2004/8/3 2:15,0,0,0.24192,0.0216,0.05472,0.22032,0,0,0.03888
2004/8/3 2:30,0,0,0.2448,0.0216,0.2304,0.2232,0.03168,0,0.00864
2004/8/3 2:45,0,0,0.2448,0.03456,0.50544,0.22032,0,0,0
2004/8/3 3:00,0,0,0.20016,0.02592,0.30096,0.22176,0,0,0.0288
2004/8/3 3:15,0,0,0.1728,0.0216,0,0.22176,0.03456,0,0.05616
2004/8/3 3:30,0,0,0.1728,0.03312,0.4608,0.22176,0,0,0.01296
2004/8/3 3:45,0,0,0.17856,0.03168,0.49536,0.22032,0.03024,0,-0.00288
2004/8/3 4:00,0,0,0.1728,0.0216,0.03744,0.2232,0,0,0.06192
2004/8/3 4:15,0,0,0.16704,0.02304,0.23616,0.22032,0.03168,0,0.02016
2004/8/3 4:30,0,0,0.1728,0.03312,0.49824,0.22176,0,0,0.01008
2004/8/3 4:45,0,0,0.17712,0.02592,0.52272,0.2232,0.03168,0,-0.0072
2004/8/3 5:00,0,0,0.1728,0.03168,0.5616,0.2232,0,0,-0.02304
2004/8/3 5:15,0,0,0.17568,0.0288,0.46944,0.2232,0.03312,0,-0.01584
2004/8/3 5:30,0,0,0.1728,0.02736,0.57456,0.22032,0,0,0.00432
2004/8/3 5:45,0,0,0.16992,0.03168,0.55152,0.22032,0.03888,0,0
2004/8/3 6:00,0,0,0.1728,0.02592,0.53712,0.22176,0,0,0.00144
2004/8/3 6:15,0,0,0.24192,0.02592,0.51264,0.22464,0.03312,0,-0.00864
2004/8/3 6:30,0,0,0.68976,0.02304,0.51408,0.22464,0,0,-0.04752
2004/8/3 6:45,0.072,0,0.89856,2.20032,0.50544,0.22176,0.02592,0,-0.06192
2004/8/3 7:00,0,0,0.87408,0.66096,0.4896,0.23184,0.0072,0,-0.02016
2004/8/3 7:15,0.0288,0,0.95472,0.0216,0,0.2232,0,0,0.03024
2004/8/3 7:30,0.0216,0,0.98352,0.19584,0.26352,0.22176,0.036,0,-0.04464
2004/8/3 7:45,0,0,0.7776,0.15264,0.54432,0.22896,0,0,-0.03744
2004/8/3 8:00,0.0288,0,0.98208,0.0792,0.52704,0.22752,0.036,0,-0.04608
2004/8/3 8:15,0,0,0.88272,0.02736,0.50688,0.22176,0.33696,0,-0.05472
2004/8/3 8:30,0,0,1.0008,0.02304,0.13824,0.22032,0.03168,0,-0.01008
2004/8/3 8:45,0,0,0.7416,0.02448,0.0936,0.30528,0,0,0.00432
2004/8/3 9:00,0,0,0.52128,0.0288,0.50832,0.41184,0.03168,0,-0.02592
2004/8/3 9:15,0,0,0.53568,0.02592,0.39744,0.40176,0,0,-0.01008
2004/8/3 9:30,0,0,0.5256,0.0216,0,0.4104,0.03456,0,0.01872
2004/8/3 9:45,0,0,0.52992,0.02736,0.35568,0.40752,0,0,-0.0072
2004/8/3 10:00,0,0,0.53856,0.02736,0.50544,0.4104,0.03024,0,-0.02592
2004/8/3 10:15,0,0,0.5256,0.02448,0.14976,0.41328,0,0,0.00864
2004/8/3 10:30,0,0,0.52416,0.02304,0.10224,0.4104,0.03456,0,0.00864
2004/8/3 10:45,0,0,0.52848,0.02592,0.50976,0.41472,0,0,-0.02304
2004/8/3 11:00,0,0,0.5472,0.0288,0.42048,0.4104,0.03456,0,-0.0144
2004/8/3 11:15,0,0,0.5544,0.0216,0,0.39888,0,0,0.02304
2004/8/3 11:30,0,0,0.69696,0.0216,0.35424,0.34848,0.0072,0,-0.01008
2004/8/3 11:45,0,0,0.7776,0.02448,0.51408,0.34848,0.02736,0,-0.04032
2004/8/3 12:00,0,0,0.76176,0.02448,0.18432,0.2664,0,0,0.00288
2004/8/3 12:15,0,0,0.74016,0.0216,0.08784,0.2232,0.0288,0,0.00288
2004/8/3 12:30,0,0,0.75888,0.02448,0.51264,0.2232,0,0,-0.03024
2004/8/3 12:45,0,0,0.75456,0.02448,0.48384,0.22464,0.03168,0,-0.02736
2004/8/3 13:00,0,0,0.78048,0.0216,0,0.22608,0,0,0.0216
2004/8/3 13:15,0,0,0.77472,0.02304,0.324,0.2232,0.036,0,-0.02304
2004/8/3 13:30,0,0,0.7704,0.0216,0.5184,0.2232,0,0,-0.02448
2004/8/3 13:45,0,0,0.7704,0.02304,0.24912,0.2232,0,0,0.00288
2004/8/3 14:00,0,0,0.75888,0.44928,0.04752,0.2232,0.03456,0,-0.06768
2004/8/3 14:15,0,0,0.76176,0.11088,0.51264,0.2232,0,0,-0.01584
2004/8/3 14:30,0,0,0.6192,0.0288,0.49392,0.44064,0.03168,0,-0.0432
2004/8/3 14:45,0,0,0.51696,0.0216,0,0.58896,0,0,0.01008
2004/8/3 15:00,0,0,0.52128,0.02448,0.2664,0.56736,0.036,0,-0.0144
2004/8/3 15:15,0,0,0.55008,0.02592,0.51408,0.468,0,0,-0.0216
2004/8/3 15:30,0,0,0.5184,0.0288,0.2808,0.3456,0,0,0.01872
2004/8/3 15:45,0,0,0.5256,0.0216,0,0.3456,0.03456,0,0.03888
2004/8/3 16:00,0,0,0.5256,0.02448,0.49392,0.36144,0,0,-0.01008
2004/8/3 16:15,0,0,0.64512,0.0288,0.49968,0.35712,0.03312,0,-0.01872
2004/8/3 16:30,0,0,0.66384,0.0216,0.036,0.35136,0,0,0.02304
2004/8/3 16:45,0,0,0.51552,0.02736,0.22032,0.37728,0,0,0.0144
2004/8/3 17:00,0,0,0.43632,0.02592,0.51408,0.56304,0.036,0,-0.04032
2004/8/3 17:15,0,0,0.45648,0.26208,0.3168,0.50544,0,0,-0.04896
2004/8/3 17:30,0,0,0.7128,0.27936,0,0.2808,0,0,0.0072
2004/8/3 17:45,0,0,0.53712,0.36576,0.46944,0.42624,0.03024,0,-0.0288
2004/8/3 18:00,0,0,0.8136,1.55952,0.50832,0.32112,0,0,-0.10512
2004/8/3 18:15,0,0,1.03824,0.21024,0.13392,0.2232,0.03312,0,-0.03888
2004/8/3 18:30,0,0,0.86976,0.07632,0.14688,0.22608,0,0,0.00288
2004/8/3 18:45,0,0,1.14048,0.07344,0.51696,0.3456,0.03456,0,-0.07056
2004/8/3 19:00,0,0,1.09584,0.072,0.50256,0.44064,0,0,-0.07488
2004/8/3 19:15,0,0,1.08288,0.06912,0.02448,0.31968,0,0,-0.01296
2004/8/3 19:30,0.0576,0,1.5768,0.04752,0.29376,0.22032,0.03024,0,-0.11952
2004/8/3 19:45,0.06192,0,2.04336,0.02304,0.5184,0.22032,0.04032,0,-0.20304
2004/8/3 20:00,0.0936,0,2.15568,0.02592,0.50544,0.22032,0,0,-0.22032
2004/8/3 20:15,0.21024,0,1.82304,0.02304,0.47808,0.22464,0,0,-0.19008
2004/8/3 20:30,2.56032,0,1.73088,0.0216,0,0.21888,0.03456,0,-0.11808
2004/8/3 20:45,1.79136,0,1.74528,0.02448,0.27936,0.22176,0,0,-0.13104
2004/8/3 21:00,1.59696,0,1.8288,0.02304,0.49536,0.40032,0.04896,0,-0.20736
2004/8/3 21:15,1.53792,0,1.77552,0.02448,0.20016,0.22032,0.03168,0,-0.13536
2004/8/3 21:30,1.53504,0,1.87056,0.0216,0.04176,0.22752,0,0,-0.11808
2004/8/3 21:45,1.55376,0,1.7568,0.02448,0.48816,0.23472,0.03456,0,-0.16848
2004/8/3 22:00,1.53072,0,2.18448,0.02592,0.48816,0.25344,0,0,-0.22176
2004/8/3 22:15,1.59408,0,2.35584,0.0216,0.01008,0.54,0.02448,0,-0.24912
2004/8/3 22:30,1.38384,0,2.21328,0.02448,0.22896,0.60624,0.3816,0,-0.41472
2004/8/3 22:45,1.7928,0,2.17584,0.0216,0.4968,0.73008,0,0,-0.46512
2004/8/3 23:00,0.9576,0,2.3112,0.02592,0.19728,0.37728,0.03456,0,-0.26064
2004/8/3 23:15,0.8496,0,1.9584,0.0216,0.03456,0.3672,0,0,-0.20304
2004/8/3 23:30,0.95904,0,1.73376,0.02592,0.48816,0.3672,0.03312,0,-0.23616
2004/8/3 23:45,0.46224,0,1.00512,0.02592,0.49536,0.36288,1.33776,0,-0.29088
2004/8/4 0:00,0,0,0.38016,0.02448,0.10944,0.3456,0.03744,0,0.01152
2004/8/4 0:15,0,0,0.40464,0.02304,0.15984,0.33696,0,0,-0.0144
2004/8/4 0:30,0,0,0.32544,0.0216,0.5184,0.30384,0,0,-0.0288
2004/8/4 0:45,0,0,0.31824,0.02736,0.49824,0.2376,0.03312,0,-0.00432
2004/8/4 1:00,0,0,0.31248,0.03456,0.54,0.2376,0,0,-0.0432
2004/8/4 1:15,0,0,0.26064,0.04032,0.54288,0.27216,0.03168,0,-0.05328
2004/8/4 1:30,0,0,0.24912,0.02304,0.45216,0.2376,0,0,-0.02016
2004/8/4 1:45,0,0,0.24336,0.02304,0.5904,0.23616,0.036,0,-0.01008
2004/8/4 2:00,0,0,0.2448,0.0288,0.5616,0.2376,0,0,-0.00864
2004/8/4 2:15,0,0,0.2448,0.03168,0.54576,0.23328,0.03168,0,-0.02304
2004/8/4 2:30,0,0,0.25344,0.0288,0.53136,0.23328,0,0,-0.01296
2004/8/4 2:45,0,0,0.25776,0.02448,0.5328,0.23472,0.03312,0,-0.03024
2004/8/4 3:00,0,0,0.25776,0.02448,0.5112,0.23472,0,0,-0.00864
2004/8/4 3:15,0,0,0.2592,0.02592,0.46944,0.23616,0.036,0,-0.00864
2004/8/4 3:30,0,0,0.2592,0.0216,0,0.23472,0,0,0.04176
2004/8/4 3:45,0,0,0.24912,0.02304,0.32256,0.23472,0,0,0.01152
2004/8/4 4:00,0,0,0.17424,0.02304,0.51408,0.23328,0.03312,0,0.00288
2004/8/4 4:15,0,0,0.1728,0.0288,0.34992,0.2304,0,0,0.03024
2004/8/4 4:30,0,0,0.17568,0.0216,0,0.23328,0.03312,0,0.0504
2004/8/4 4:45,0,0,0.1728,0.03024,0.40464,0.23328,0,0,0.02016
2004/8/4 5:00,0.0288,0,0.4104,0.0288,0.4968,0.23472,0.03312,0,-0.02304
2004/8/4 5:15,0.0144,0,0.4968,0.0216,0.1368,0.33264,0,0,0.01008
2004/8/4 5:30,0,0,0.19872,0.0216,0.11952,0.22464,0.036,0,0.03312
2004/8/4 5:45,0,0,0.1728,0.02592,0.49536,0.216,0,0,0.0144
2004/8/4 6:00,0,0,0.17424,0.02448,0.39456,0.216,0.03456,0,0.02304
2004/8/4 6:15,0,0,0.1728,0.0216,0,0.216,0,0,0.0648
2004/8/4 6:30,0,0,0.1728,0.02304,0.31392,0.216,0,0,0.036
2004/8/4 6:45,0,0,0.17568,0.02448,0.49104,0.216,0.03456,0,0.01296
2004/8/4 7:00,0,0,0.23616,0.02304,0.16272,0.22464,0,0,0.036
2004/8/4 7:15,0,0,0.60912,0.0216,0.05616,0.216,0.036,0,0.0504
2004/8/4 7:30,0,0,0.74592,0.02592,0.49968,0.216,0,0,0.0144
2004/8/4 7:45,0,0,0.74304,0.03168,0.49248,0.216,0.03456,0,0.0072
2004/8/4 8:00,0,0,0.99504,0.35856,0.10224,0.216,0,0,-0.05184
2004/8/4 8:15,0.036,0,1.11888,0.02304,0.18288,0.216,0.01296,0,-0.00576
2004/8/4 8:30,0,0,1.06416,0.036,0.50256,0.216,0.34704,0,-0.07344
2004/8/4 8:45,0,0,0.85824,0.02304,0.42912,0.216,0,0,0.01008
2004/8/4 9:00,0,0,0.77328,0.0216,0,0.216,0,0,0.04608
2004/8/4 9:15,0,0,1.1736,0.02592,0.3024,0.216,0.0288,0,-0.02448
2004/8/4 9:30,0,0,0.96768,0.03456,0.49824,0.23472,0.03168,0,-0.036
2004/8/4 9:45,0,0,0.97776,0.02304,0.20592,0.2232,0,0,0.00864
2004/8/4 10:00,0,0,0.9792,0.0216,0.0144,0.216,0.0288,0,0.02448
2004/8/4 10:15,0,0,0.98784,0.03312,0.4968,0.216,0.00432,0,-0.0216
2004/8/4 10:30,0,0,0.98208,0.03024,0.48528,0.216,0,0,-0.02016
2004/8/4 10:45,0,0,0.98208,0.0216,0,0.216,0.03744,0,0.01296
2004/8/4 11:00,0,0,0.96768,0.02304,0.24048,0.216,0,0,0.00144
2004/8/4 11:15,0,0,0.97488,0.03456,0.49824,0.216,0.036,0,-0.03024
2004/8/4 11:30,0,0,0.97344,0.02304,0.2592,0.216,0,0,0.00144
2004/8/4 11:45,0,0,0.95472,0.0216,0,0.216,0.03312,0,0.01872
2004/8/4 12:00,0,0,0.9648,0.03024,0.47664,0.22032,0,0,-0.01872
2004/8/4 12:15,0,0,0.96768,0.02592,0.49824,0.216,0.036,0,-0.02592
2004/8/4 12:30,0,0,0.97056,0.02304,0.02016,0.216,0,0,0.0216
2004/8/4 12:45,0,0,0.9504,0.0216,0.2232,0.216,0,0,0.0072
2004/8/4 13:00,0,0,0.96192,0.036,0.49824,0.216,0.03168,0,-0.01728
2004/8/4 13:15,0,0,0.97344,0.0288,0.26784,0.216,0,0,0.0072
2004/8/4 13:30,0,0,0.63216,0.0216,0,0.216,0.03456,0,0.04608
2004/8/4 13:45,0,0,0.53856,0.02304,0.47952,0.216,0,0,0.03168
2004/8/4 14:00,0,0,0.52416,0.02592,0.50112,0.216,0.03312,0,0.036
2004/8/4 14:15,0,0,0.53424,0.02304,0.07488,0.216,0,0,0.0792
2004/8/4 14:30,0,0,0.53424,0.02304,0.18,0.216,0.03168,0,0.05616
2004/8/4 14:45,0,0,0.57888,0.03168,0.50688,0.2232,0,0,0.02304
2004/8/4 15:00,0,0,0.6912,0.02448,0.35568,0.22608,0.036,0,0.0072
2004/8/4 15:15,0,0,0.83232,0.0216,0,0.216,0,0,0.02448
2004/8/4 15:30,0,0,0.9144,0.0288,0.39312,0.216,0,0,-0.02448
2004/8/4 15:45,0,0,0.91296,0.02736,0.504,0.216,0.03024,0,-0.03456
2004/8/4 16:00,0,0,0.91728,0.02304,0.09072,0.216,0,0,0.01008
2004/8/4 16:15,0,0,0.7128,0.02304,0.1656,0.216,0.03744,0,0.02304
2004/8/4 16:30,0,0,0.68112,0.03456,0.504,0.216,0,0,0
2004/8/4 16:45,0,0,0.74736,0.0288,0.48672,0.216,0.036,0,-0.01296
2004/8/4 17:00,0,0,0.90288,0.02448,0.5256,0.2232,0,0,-0.04032
2004/8/4 17:15,0.29088,0,0.93456,0.0216,0.2016,0.41328,0,0,-0.0432
2004/8/4 17:30,1.38672,0,0.9288,0.02304,0.04176,0.44208,0.03312,0,-0.036
2004/8/4 17:45,1.42704,0,0.92448,0.0288,0.50256,0.432,0,0,-0.0648
2004/8/4 18:00,1.40976,0,0.80496,0.03168,0.468,0.38448,0.03456,0,-0.03312